Other Public Products
Issued by NWS Charleston, SC

Current Version | Previous Version | Text Only | Print | Product List | Glossary Off
Versions: 1 2 3 4 5 6 7 8 9 10 11 12 13 14 15 16 17 18 19 20 21 22 23 24 25 26 27 28 29 30 31 32 33 34 35 36 37 38 39 40 41 42 43 44 45 46 47 48 49 50

000
FPUS82 KCHS 240627
OPUCHS

TEST...KCHS/KSAV Gateway Observations...TEST
National Weather Service Charleston SC
200 AM EDT TUE APR 24 2018

NOTE: "fair" indicates few or no clouds below 12,000 feet with no
significant weather and/or obstructions to visibility.

SCZ050-WAZ558-NCZ071-TXZ119-213-PAZ071-DCZ001-FLZ074-172-MI076-
NYZ176-178-MAZ016-IL014-TNZ027-NJZ106-GAZ044-MD014-240700-

...Gateway Observations for Charleston International...

CITY           SKY/WX    TMP DP  RH WIND       PRES   REMARKS
Chas Airport   MOCLDY    68  67  96 SE8       29.90F FOG
6HR MIN TEMP:  66; 6HR MAX TEMP:  68; 6HR PCP:  0.63;

Seattle        CLEAR     61  31  32 NE10      30.22S
6HR MIN TEMP:  60; 6HR MAX TEMP:  67;

Charlotte      CLOUDY    58  56  93 E14G22    30.01F
6HR MIN TEMP:  57; 6HR MAX TEMP:  59; 6HR PCP:  0.47;

Dallas DFW     CLEAR     63  51  65 NW7       30.03S
6HR MIN TEMP:  63; 6HR MAX TEMP:  74;

Dallas Love    CLEAR     62  54  74 CALM      30.04S
6HR MIN TEMP:  61; 6HR MAX TEMP:  75;

Philladelphia  MOCLDY    47  33  58 E3        30.39F
6HR MIN TEMP:  46; 6HR MAX TEMP:  59;

Wash National  CLOUDY    56  34  43 SE7       30.34F
6HR MIN TEMP:  55; 6HR MAX TEMP:  61;

Baltimore      CLOUDY    52  35  52 E5        30.34F
6HR MIN TEMP:  50; 6HR MAX TEMP:  61;

Miami          FAIR      74  73  97 S5        29.98F
6HR MIN TEMP:  74; 6HR MAX TEMP:  77;

Detroit        CLOUDY    56  43  61 CALM      30.15F
6HR MIN TEMP:  53; 6HR MAX TEMP:  66; 6HR PCP: TRACE;

Newark         FAIR      49  39  68 CALM      30.41F
6HR MIN TEMP:  48; 6HR MAX TEMP:  52;

Laguardia      FAIR      50  42  74 S5        30.41F
6HR MIN TEMP:  50; 6HR MAX TEMP:  54;

J F K          FAIR      44  43  96 CALM      30.43F
6HR MIN TEMP:  43; 6HR MAX TEMP:  48;

Boston Logan   FAIR      45  26  47 SW8       30.42F
6HR MIN TEMP:  45; 6HR MAX TEMP:  53;

Ft. Lauderdale FAIR      75  75 100 SW5       29.96F
6HR MIN TEMP:  75; 6HR MAX TEMP:  79;

Chicago O`Hare CLOUDY    49  32  52 E3        30.08F
6HR MIN TEMP:  48; 6HR MAX TEMP:  56; 6HR PCP: TRACE;

Chicago Midway DRIZZLE   51  37  58 NE6       30.08F
6HR MIN TEMP:  50; 6HR MAX TEMP:  55; 6HR PCP: TRACE;

Houston Bush   FAIR      61  57  87 CALM      30.05R
6HR MIN TEMP:  61; 6HR MAX TEMP:  77;

Houston Hobby  FAIR      62  57  83 E3        30.04R
6HR MIN TEMP:  61; 6HR MAX TEMP:  77;

Nashville      CLOUDY    57  55  93 NE5       29.89F
6HR MIN TEMP:  57; 6HR MAX TEMP:  61; 6HR PCP: TRACE;

Atlanta        CLOUDY    61  61 100 N7        29.85F
6HR MIN TEMP:  61; 6HR MAX TEMP:  65; 6HR PCP:  2.32;


$$

GAZ044-118-TXZ119-213-NCZ071-DCZ001-MDZ014-506-PAZ021-071-NJZ106-
NYZ176-178-MAZ106-OHZ011-021-055-MIZ076-KYZ091-ILZ014-INZ047-
MNZ060-ONZ431-240700-

...Gateway Observations for Savannah International...

CITY           SKY/WX    TMP DP  RH WIND       PRES   REMARKS
Savannah Arpt  FAIR      67  65  93 S5        29.89F
6HR MIN TEMP:  67; 6HR MAX TEMP:  70;

Atlanta        CLOUDY    61  61 100 N7        29.85F
6HR MIN TEMP:  61; 6HR MAX TEMP:  65; 6HR PCP:  2.32;

Charlotte      CLOUDY    58  56  93 E14G22    30.01F
6HR MIN TEMP:  57; 6HR MAX TEMP:  59; 6HR PCP:  0.47;

Dallas DFW     CLEAR     63  51  65 NW7       30.03S
6HR MIN TEMP:  63; 6HR MAX TEMP:  74;

Houston Bush   FAIR      61  57  87 CALM      30.05R
6HR MIN TEMP:  61; 6HR MAX TEMP:  77;

Wash National  CLOUDY    56  34  43 SE7       30.34F
6HR MIN TEMP:  55; 6HR MAX TEMP:  61;

Wash Dulles    CLOUDY    54  37  52 SE7       30.33S
6HR MIN TEMP:  54; 6HR MAX TEMP:  60;

Baltimore      CLOUDY    52  35  52 E5        30.34F
6HR MIN TEMP:  50; 6HR MAX TEMP:  61;

Philadelphia   MOCLDY    47  33  58 E3        30.39F
6HR MIN TEMP:  46; 6HR MAX TEMP:  59;

Newark         FAIR      49  39  68 CALM      30.41F
6HR MIN TEMP:  48; 6HR MAX TEMP:  52;

Laguardia      FAIR      50  42  74 S5        30.41F
6HR MIN TEMP:  50; 6HR MAX TEMP:  54;

J F K          FAIR      44  43  96 CALM      30.43F
6HR MIN TEMP:  43; 6HR MAX TEMP:  48;

Boston         FAIR      45  26  47 SW8       30.42F
6HR MIN TEMP:  45; 6HR MAX TEMP:  53;

Pittsburg      LGT RAIN  55  47  74 SE10      30.18F
6HR MIN TEMP:  55; 6HR MAX TEMP:  66; 6HR PCP: TRACE;

Akron          CLOUDY    57  39  51 E6        30.16F
6HR MIN TEMP:  55; 6HR MAX TEMP:  61;

Cleveland      CLOUDY    57  45  64 E5        30.18F
6HR MIN TEMP:  55; 6HR MAX TEMP:  65; 6HR PCP: TRACE;

Cincinnati     CLOUDY    52  48  86 E9        30.00F
6HR MIN TEMP:  52; 6HR MAX TEMP:  54; 6HR PCP: TRACE;

Columbus       CLOUDY    53  49  86 E14       30.08F
Detroit        CLOUDY    56  43  61 CALM      30.15F
6HR MIN TEMP:  53; 6HR MAX TEMP:  66; 6HR PCP: TRACE;

Chicago O`Hare CLOUDY    49  32  52 E3        30.08F
6HR MIN TEMP:  48; 6HR MAX TEMP:  56; 6HR PCP: TRACE;

Minneapolis    FAIR      53  40  61 CALM      30.14R
6HR MIN TEMP:  52; 6HR MAX TEMP:  68;

Indianapolis   CLOUDY    52  50  93 E9        30.01F
6HR MIN TEMP:  52; 6HR MAX TEMP:  56; 6HR PCP: TRACE;

Toronto Canada CLOUDY    48  25  40 CALM      30.18S

$$




USA.gov is the U.S. government's official web portal to all federal, state and local government web resources and services.